Time,TemperatureF,DewpointF,PressureIn,WindDirection,WindDirectionDegrees,WindSpeedMPH,WindSpeedGustMPH,Humidity,HourlyPrecipIn,Conditions,Clouds,dailyrainin,SoftwareType,DateUTC
2013-05-14 00:02:00,41.0,-99.9,29.52,SE,142,1.0,2.0,-999,-99.99,,,-99.99,,2013-05-14 08:02:00,
2013-05-14 00:11:00,40.0,-99.9,29.52,South,175,5.0,7.0,-999,-99.99,,,-99.99,,2013-05-14 08:11:00,
2013-05-14 00:22:00,40.0,-99.9,29.52,SSE,155,3.0,4.0,-999,-99.99,,,-99.99,,2013-05-14 08:22:00,
2013-05-14 00:32:00,40.0,-99.9,29.52,SE,127,3.0,5.0,-999,-99.99,,,-99.99,,2013-05-14 08:32:00,
2013-05-14 00:42:00,40.0,-99.9,29.52,ESE,120,-999.0,1.0,-999,-99.99,,,-99.99,,2013-05-14 08:42:00,
2013-05-14 00:52:00,39.0,-99.9,29.52,SSE,152,0.0,4.0,-999,-99.99,,,-99.99,,2013-05-14 08:52:00,
2013-05-14 01:02:00,39.0,-99.9,29.52,South,174,1.0,3.0,-999,-99.99,,,-99.99,,2013-05-14 09:02:00,
2013-05-14 01:11:00,39.0,-99.9,29.52,South,170,1.0,2.0,-999,-99.99,,,-99.99,,2013-05-14 09:11:00,
2013-05-14 01:22:00,39.0,-99.9,29.52,WSW,249,1.0,2.0,-999,-99.99,,,-99.99,,2013-05-14 09:22:00,
2013-05-14 01:33:00,39.0,-99.9,29.52,ENE,69,0.0,1.0,-999,-99.99,,,-99.99,,2013-05-14 09:33:00,
2013-05-14 01:44:00,39.0,-99.9,29.52,SE,128,0.0,3.0,-999,-99.99,,,-99.99,,2013-05-14 09:44:00,
2013-05-14 01:55:00,39.0,-99.9,29.53,SE,135,3.0,4.0,-999,-99.99,,,-99.99,,2013-05-14 09:55:00,
2013-05-14 02:05:00,39.0,-99.9,29.53,NNE,15,2.0,4.0,-999,-99.99,,,-99.99,,2013-05-14 10:05:00,
2013-05-14 02:14:00,38.0,-99.9,29.53,SSE,154,2.0,3.0,-999,-99.99,,,-99.99,,2013-05-14 10:14:00,
2013-05-14 02:25:00,39.0,-99.9,29.53,East,83,4.0,5.0,-999,-99.99,,,-99.99,,2013-05-14 10:25:00,
2013-05-14 02:33:00,39.0,-99.9,29.53,East,84,4.0,5.0,-999,-99.99,,,-99.99,,2013-05-14 10:33:00,
2013-05-14 02:42:00,38.0,-99.9,29.53,SSW,210,2.0,3.0,-999,-99.99,,,-99.99,,2013-05-14 10:42:00,
2013-05-14 02:53:00,38.0,-99.9,29.53,SE,141,1.0,3.0,-999,-99.99,,,-99.99,,2013-05-14 10:53:00,
2013-05-14 03:03:00,38.0,-99.9,29.54,SSW,193,1.0,2.0,-999,-99.99,,,-99.99,,2013-05-14 11:03:00,
2013-05-14 03:11:00,40.0,-99.9,29.54,ESE,122,3.0,4.0,-999,-99.99,,,-99.99,,2013-05-14 11:11:00,
2013-05-14 03:22:00,38.0,-99.9,29.54,ESE,119,3.0,4.0,-999,-99.99,,,-99.99,,2013-05-14 11:22:00,
2013-05-14 03:32:00,38.0,-99.9,29.54,SE,132,2.0,6.0,-999,-99.99,,,-99.99,,2013-05-14 11:32:00,
2013-05-14 03:43:00,38.0,-99.9,29.54,SW,217,3.0,4.0,-999,-99.99,,,-99.99,,2013-05-14 11:43:00,
2013-05-14 03:53:00,37.0,-99.9,29.54,South,178,-999.0,3.0,-999,-99.99,,,-99.99,,2013-05-14 11:53:00,
2013-05-14 04:03:00,37.0,-99.9,29.54,ENE,77,1.0,2.0,-999,-99.99,,,-99.99,,2013-05-14 12:03:00,
2013-05-14 04:12:00,38.0,-99.9,29.54,NE,39,-999.0,3.0,-999,-99.99,,,-99.99,,2013-05-14 12:12:00,
2013-05-14 04:22:00,37.0,-99.9,29.54,SSW,203,-999.0,2.0,-999,-99.99,,,-99.99,,2013-05-14 12:22:00,
2013-05-14 04:32:00,37.0,-99.9,29.54,SE,125,1.0,2.0,-999,-99.99,,,-99.99,,2013-05-14 12:32:00,
2013-05-14 04:42:00,37.0,-99.9,29.55,SSE,157,2.0,5.0,-999,-99.99,,,-99.99,,2013-05-14 12:42:00,
2013-05-14 04:52:00,37.0,-99.9,29.55,SSE,153,2.0,4.0,-999,-99.99,,,-99.99,,2013-05-14 12:52:00,
2013-05-14 05:01:00,37.0,-99.9,29.55,SE,126,1.0,1.0,-999,-99.99,,,-99.99,,2013-05-14 13:01:00,
2013-05-14 05:11:00,37.0,-99.9,29.55,SSW,208,0.0,4.0,-999,-99.99,,,-99.99,,2013-05-14 13:11:00,
2013-05-14 05:22:00,37.0,-99.9,29.55,ESE,119,1.0,2.0,-999,-99.99,,,-99.99,,2013-05-14 13:22:00,
2013-05-14 05:32:00,37.0,-99.9,29.55,SE,138,-999.0,2.0,-999,-99.99,,,-99.99,,2013-05-14 13:32:00,
2013-05-14 05:42:00,37.0,-99.9,29.55,ESE,108,1.0,2.0,-999,-99.99,,,-99.99,,2013-05-14 13:42:00,
2013-05-14 05:52:00,37.0,-99.9,29.55,West,279,-999.0,1.0,-999,-99.99,,,-99.99,,2013-05-14 13:52:00,
2013-05-14 06:01:00,37.0,-99.9,29.55,NE,56,1.0,2.0,-999,-99.99,,,-99.99,,2013-05-14 14:01:00,
2013-05-14 06:11:00,36.0,-99.9,29.55,SSE,151,2.0,2.0,-999,-99.99,,,-99.99,,2013-05-14 14:11:00,
2013-05-14 06:22:00,36.0,-99.9,29.55,SE,134,-999.0,2.0,-999,-99.99,,,-99.99,,2013-05-14 14:22:00,
2013-05-14 06:32:00,37.0,-99.9,29.55,SSE,147,2.0,2.0,-999,-99.99,,,-99.99,,2013-05-14 14:32:00,
2013-05-14 06:42:00,37.0,-99.9,29.56,SSW,204,-999.0,1.0,-999,-99.99,,,-99.99,,2013-05-14 14:42:00,
2013-05-14 06:53:00,37.0,-99.9,29.56,SE,129,1.0,2.0,-999,-99.99,,,-99.99,,2013-05-14 14:53:00,
2013-05-14 07:01:00,37.0,-99.9,29.56,SE,129,1.0,2.0,-999,-99.99,,,-99.99,,2013-05-14 15:01:00,
2013-05-14 07:12:00,36.0,-99.9,29.56,SSE,166,4.0,5.0,-999,-99.99,,,-99.99,,2013-05-14 15:12:00,
2013-05-14 07:22:00,36.0,-99.9,29.56,SSE,150,1.0,4.0,-999,-99.99,,,-99.99,,2013-05-14 15:22:00,
2013-05-14 07:33:00,36.0,-99.9,29.56,SSE,150,1.0,2.0,-999,-99.99,,,-99.99,,2013-05-14 15:33:00,
2013-05-14 07:43:00,38.0,-99.9,29.56,WNW,298,0.0,2.0,-999,-99.99,,,-99.99,,2013-05-14 15:43:00,
2013-05-14 07:53:00,37.0,-99.9,29.57,South,180,2.0,3.0,-999,-99.99,,,-99.99,,2013-05-14 15:53:00,
2013-05-14 08:02:00,38.0,-99.9,29.57,South,174,1.0,2.0,-999,-99.99,,,-99.99,,2013-05-14 16:02:00,
2013-05-14 08:12:00,37.0,-99.9,29.57,SW,219,2.0,2.0,-999,-99.99,,,-99.99,,2013-05-14 16:12:00,
2013-05-14 08:23:00,37.0,-99.9,29.57,SSE,153,2.0,2.0,-999,-99.99,,,-99.99,,2013-05-14 16:23:00,
2013-05-14 08:33:00,38.0,-99.9,29.57,SW,214,2.0,2.0,-999,-99.99,,,-99.99,,2013-05-14 16:33:00,
2013-05-14 08:44:00,38.0,-99.9,29.57,SW,214,2.0,2.0,-999,-99.99,,,-99.99,,2013-05-14 16:44:00,
2013-05-14 08:54:00,40.0,-99.9,29.57,SSE,165,1.0,2.0,-999,-99.99,,,-99.99,,2013-05-14 16:54:00,
2013-05-14 09:04:00,42.0,-99.9,29.58,NNE,19,0.0,2.0,-999,-99.99,,,-99.99,,2013-05-14 17:04:00,
2013-05-14 09:14:00,47.0,-99.9,29.58,WSW,257,0.0,2.0,-999,-99.99,,,-99.99,,2013-05-14 17:14:00,
2013-05-14 09:25:00,43.0,-99.9,29.58,SSW,196,-999.0,1.0,-999,-99.99,,,-99.99,,2013-05-14 17:25:00,
2013-05-14 09:33:00,42.0,-99.9,29.58,South,171,1.0,2.0,-999,-99.99,,,-99.99,,2013-05-14 17:33:00,
2013-05-14 09:43:00,48.0,-99.9,29.58,North,-999,-999.0,-999.0,-999,-99.99,,,-99.99,,2013-05-14 17:43:00,
2013-05-14 09:52:00,51.0,-99.9,29.58,North,-999,-999.0,-999.0,-999,-99.99,,,-99.99,,2013-05-14 17:52:00,
2013-05-14 10:02:00,49.0,-99.9,29.58,SW,233,-999.0,1.0,-999,-99.99,,,-99.99,,2013-05-14 18:02:00,
2013-05-14 10:12:00,46.0,-99.9,29.58,East,101,-999.0,3.0,-999,-99.99,,,-99.99,,2013-05-14 18:12:00,
2013-05-14 10:22:00,49.0,-99.9,29.59,West,272,1.0,2.0,-999,-99.99,,,-99.99,,2013-05-14 18:22:00,
2013-05-14 10:32:00,49.0,-99.9,29.59,WSW,246,-999.0,1.0,-999,-99.99,,,-99.99,,2013-05-14 18:32:00,
2013-05-14 10:42:00,48.0,-99.9,29.59,NW,309,1.0,2.0,-999,-99.99,,,-99.99,,2013-05-14 18:42:00,
2013-05-14 10:52:00,48.0,-99.9,29.59,SSW,209,0.0,3.0,-999,-99.99,,,-99.99,,2013-05-14 18:52:00,
2013-05-14 11:02:00,46.0,-99.9,29.59,ENE,69,3.0,5.0,-999,-99.99,,,-99.99,,2013-05-14 19:02:00,
2013-05-14 11:12:00,45.0,-99.9,29.60,NNE,24,6.0,9.0,-999,-99.99,,,-99.99,,2013-05-14 19:12:00,
2013-05-14 11:22:00,46.0,-99.9,29.60,NNE,19,3.0,6.0,-999,-99.99,,,-99.99,,2013-05-14 19:22:00,
2013-05-14 11:32:00,45.0,-99.9,29.60,East,99,5.0,9.0,-999,-99.99,,,-99.99,,2013-05-14 19:32:00,
2013-05-14 11:42:00,46.0,-99.9,29.60,WSW,244,9.0,13.0,-999,-99.99,,,-99.99,,2013-05-14 19:42:00,
2013-05-14 11:53:00,46.0,-99.9,29.60,North,5,3.0,12.0,-999,-99.99,,,-99.99,,2013-05-14 19:53:00,
2013-05-14 12:02:00,46.0,-99.9,29.60,NNW,345,2.0,8.0,-999,-99.99,,,-99.99,,2013-05-14 20:02:00,
2013-05-14 12:11:00,46.0,-99.9,29.60,SW,223,5.0,9.0,-999,-99.99,,,-99.99,,2013-05-14 20:11:00,
2013-05-14 12:23:00,47.0,-99.9,29.61,West,268,2.0,9.0,-999,-99.99,,,-99.99,,2013-05-14 20:23:00,
2013-05-14 12:33:00,45.0,-99.9,29.61,SW,221,11.0,16.0,-999,-99.99,,,-99.99,,2013-05-14 20:33:00,
2013-05-14 12:44:00,46.0,-99.9,29.61,SSW,196,2.0,9.0,-999,-99.99,,,-99.99,,2013-05-14 20:44:00,
2013-05-14 12:52:00,45.0,-99.9,29.61,South,182,6.0,13.0,-999,-99.99,,,-99.99,,2013-05-14 20:52:00,
2013-05-14 13:03:00,46.0,-99.9,29.61,SSW,203,8.0,13.0,-999,-99.99,,,-99.99,,2013-05-14 21:03:00,
2013-05-14 13:12:00,45.0,-99.9,29.61,SSE,168,7.0,11.0,-999,-99.99,,,-99.99,,2013-05-14 21:12:00,
2013-05-14 13:23:00,45.0,-99.9,29.61,South,173,7.0,15.0,-999,-99.99,,,-99.99,,2013-05-14 21:23:00,
2013-05-14 13:34:00,46.0,-99.9,29.62,South,181,9.0,13.0,-999,-99.99,,,-99.99,,2013-05-14 21:34:00,
2013-05-14 13:43:00,46.0,-99.9,29.62,SW,224,8.0,13.0,-999,-99.99,,,-99.99,,2013-05-14 21:43:00,
2013-05-14 13:53:00,46.0,-99.9,29.62,SSW,195,7.0,16.0,-999,-99.99,,,-99.99,,2013-05-14 21:53:00,
2013-05-14 14:03:00,47.0,-99.9,29.62,South,184,3.0,8.0,-999,-99.99,,,-99.99,,2013-05-14 22:03:00,
2013-05-14 14:13:00,48.0,-99.9,29.62,WNW,299,1.0,8.0,-999,-99.99,,,-99.99,,2013-05-14 22:13:00,
2013-05-14 14:24:00,47.0,-99.9,29.62,South,174,6.0,10.0,-999,-99.99,,,-99.99,,2013-05-14 22:24:00,
2013-05-14 14:35:00,48.0,-99.9,29.62,West,262,3.0,5.0,-999,-99.99,,,-99.99,,2013-05-14 22:35:00,
2013-05-14 14:45:00,48.0,-99.9,29.62,NE,53,2.0,6.0,-999,-99.99,,,-99.99,,2013-05-14 22:45:00,
2013-05-14 14:55:00,47.0,-99.9,29.62,East,87,4.0,7.0,-999,-99.99,,,-99.99,,2013-05-14 22:55:00,
2013-05-14 15:04:00,47.0,-99.9,29.62,NE,52,4.0,8.0,-999,-99.99,,,-99.99,,2013-05-14 23:04:00,
2013-05-14 15:12:00,46.0,-99.9,29.63,NNE,29,9.0,12.0,-999,-99.99,,,-99.99,,2013-05-14 23:12:00,
2013-05-14 15:22:00,45.0,-99.9,29.63,NNE,26,11.0,14.0,-999,-99.99,,,-99.99,,2013-05-14 23:22:00,
2013-05-14 15:32:00,45.0,-99.9,29.63,NNE,23,11.0,15.0,-999,-99.99,,,-99.99,,2013-05-14 23:32:00,
2013-05-14 15:44:00,45.0,-99.9,29.64,NNE,29,8.0,15.0,-999,-99.99,,,-99.99,,2013-05-14 23:44:00,
2013-05-14 15:53:00,47.0,-99.9,29.64,NNE,30,5.0,10.0,-999,-99.99,,,-99.99,,2013-05-14 23:53:00,
2013-05-14 16:02:00,47.0,-99.9,29.64,NNE,31,4.0,7.0,-999,-99.99,,,-99.99,,2013-05-15 00:02:00,
2013-05-14 16:11:00,47.0,-99.9,29.64,NNE,27,4.0,9.0,-999,-99.99,,,-99.99,,2013-05-15 00:11:00,
2013-05-14 16:22:00,46.0,-99.9,29.64,NNE,32,4.0,10.0,-999,-99.99,,,-99.99,,2013-05-15 00:22:00,
2013-05-14 16:32:00,47.0,-99.9,29.64,ENE,63,3.0,9.0,-999,-99.99,,,-99.99,,2013-05-15 00:32:00,
2013-05-14 16:42:00,47.0,-99.9,29.64,ENE,60,3.0,9.0,-999,-99.99,,,-99.99,,2013-05-15 00:42:00,
2013-05-14 16:52:00,47.0,-99.9,29.64,NE,41,6.0,10.0,-999,-99.99,,,-99.99,,2013-05-15 00:52:00,
2013-05-14 17:01:00,47.0,-99.9,29.64,NNE,30,6.0,11.0,-999,-99.99,,,-99.99,,2013-05-15 01:01:00,
2013-05-14 17:12:00,46.0,-99.9,29.64,NNE,23,6.0,10.0,-999,-99.99,,,-99.99,,2013-05-15 01:12:00,
2013-05-14 17:22:00,45.0,-99.9,29.64,NNE,20,9.0,11.0,-999,-99.99,,,-99.99,,2013-05-15 01:22:00,
2013-05-14 17:32:00,46.0,-99.9,29.64,NNE,25,8.0,11.0,-999,-99.99,,,-99.99,,2013-05-15 01:32:00,
2013-05-14 17:42:00,46.0,-99.9,29.64,NNE,20,6.0,11.0,-999,-99.99,,,-99.99,,2013-05-15 01:42:00,
2013-05-14 17:52:00,48.0,-99.9,29.65,NE,43,3.0,8.0,-999,-99.99,,,-99.99,,2013-05-15 01:52:00,
2013-05-14 18:02:00,46.0,-99.9,29.65,NNE,33,4.0,10.0,-999,-99.99,,,-99.99,,2013-05-15 02:02:00,
2013-05-14 18:11:00,47.0,-99.9,29.65,NNE,28,2.0,10.0,-999,-99.99,,,-99.99,,2013-05-15 02:11:00,
2013-05-14 18:22:00,46.0,-99.9,29.65,North,360,7.0,10.0,-999,-99.99,,,-99.99,,2013-05-15 02:22:00,
2013-05-14 18:32:00,46.0,-99.9,29.65,North,358,6.0,11.0,-999,-99.99,,,-99.99,,2013-05-15 02:32:00,
2013-05-14 18:42:00,46.0,-99.9,29.65,North,10,8.0,11.0,-999,-99.99,,,-99.99,,2013-05-15 02:42:00,
2013-05-14 18:52:00,47.0,-99.9,29.65,North,8,5.0,10.0,-999,-99.99,,,-99.99,,2013-05-15 02:52:00,
2013-05-14 19:01:00,47.0,-99.9,29.65,NNE,14,4.0,11.0,-999,-99.99,,,-99.99,,2013-05-15 03:01:00,
2013-05-14 19:13:00,45.0,-99.9,29.65,NNE,33,8.0,11.0,-999,-99.99,,,-99.99,,2013-05-15 03:13:00,
2013-05-14 19:22:00,46.0,-99.9,29.65,NNE,24,5.0,9.0,-999,-99.99,,,-99.99,,2013-05-15 03:22:00,
2013-05-14 19:33:00,46.0,-99.9,29.65,NNE,14,5.0,8.0,-999,-99.99,,,-99.99,,2013-05-15 03:33:00,
2013-05-14 19:44:00,46.0,-99.9,29.65,North,9,6.0,8.0,-999,-99.99,,,-99.99,,2013-05-15 03:44:00,
2013-05-14 19:54:00,45.0,-99.9,29.66,North,7,6.0,9.0,-999,-99.99,,,-99.99,,2013-05-15 03:54:00,
2013-05-14 20:03:00,46.0,-99.9,29.66,North,5,5.0,9.0,-999,-99.99,,,-99.99,,2013-05-15 04:03:00,
2013-05-14 20:12:00,45.0,-99.9,29.66,North,351,5.0,9.0,-999,-99.99,,,-99.99,,2013-05-15 04:12:00,
2013-05-14 20:24:00,45.0,-99.9,29.66,NNE,13,6.0,8.0,-999,-99.99,,,-99.99,,2013-05-15 04:24:00,
2013-05-14 20:33:00,45.0,-99.9,29.66,NNE,12,6.0,7.0,-999,-99.99,,,-99.99,,2013-05-15 04:33:00,
2013-05-14 20:43:00,44.0,-99.9,29.66,North,5,6.0,9.0,-999,-99.99,,,-99.99,,2013-05-15 04:43:00,
2013-05-14 20:52:00,44.0,-99.9,29.67,North,358,6.0,8.0,-999,-99.99,,,-99.99,,2013-05-15 04:52:00,
2013-05-14 21:02:00,44.0,-99.9,29.67,North,356,4.0,7.0,-999,-99.99,,,-99.99,,2013-05-15 05:02:00,
2013-05-14 21:12:00,44.0,-99.9,29.67,NNW,348,4.0,7.0,-999,-99.99,,,-99.99,,2013-05-15 05:12:00,
2013-05-14 21:22:00,43.0,-99.9,29.67,North,1,5.0,6.0,-999,-99.99,,,-99.99,,2013-05-15 05:22:00,
2013-05-14 21:32:00,44.0,-99.9,29.67,North,2,2.0,5.0,-999,-99.99,,,-99.99,,2013-05-15 05:32:00,
2013-05-14 21:42:00,43.0,-99.9,29.67,North,5,5.0,6.0,-999,-99.99,,,-99.99,,2013-05-15 05:42:00,
2013-05-14 21:52:00,43.0,-99.9,29.67,NNW,338,4.0,6.0,-999,-99.99,,,-99.99,,2013-05-15 05:52:00,
2013-05-14 22:02:00,43.0,-99.9,29.68,NNW,331,4.0,5.0,-999,-99.99,,,-99.99,,2013-05-15 06:02:00,
2013-05-14 22:11:00,44.0,-99.9,29.68,WNW,294,6.0,6.0,-999,-99.99,,,-99.99,,2013-05-15 06:11:00,
2013-05-14 22:22:00,42.0,-99.9,29.68,NNE,30,2.0,5.0,-999,-99.99,,,-99.99,,2013-05-15 06:22:00,
2013-05-14 22:32:00,42.0,-99.9,29.68,North,356,1.0,4.0,-999,-99.99,,,-99.99,,2013-05-15 06:32:00,
2013-05-14 22:42:00,42.0,-99.9,29.69,West,271,3.0,5.0,-999,-99.99,,,-99.99,,2013-05-15 06:42:00,
2013-05-14 22:52:00,42.0,-99.9,29.69,NW,306,3.0,5.0,-999,-99.99,,,-99.99,,2013-05-15 06:52:00,
2013-05-14 23:01:00,42.0,-99.9,29.69,NW,312,1.0,3.0,-999,-99.99,,,-99.99,,2013-05-15 07:01:00,
2013-05-14 23:11:00,42.0,-99.9,29.69,SSW,213,1.0,3.0,-999,-99.99,,,-99.99,,2013-05-15 07:11:00,
2013-05-14 23:22:00,42.0,-99.9,29.69,SSW,205,1.0,4.0,-999,-99.99,,,-99.99,,2013-05-15 07:22:00,
2013-05-14 23:32:00,40.0,-99.9,29.70,SE,140,0.0,4.0,-999,-99.99,,,-99.99,,2013-05-15 07:32:00,
2013-05-14 23:42:00,40.0,-99.9,29.70,SE,128,1.0,2.0,-999,-99.99,,,-99.99,,2013-05-15 07:42:00,
2013-05-14 23:52:00,40.0,-99.9,29.70,ESE,117,2.0,5.0,-999,-99.99,,,-99.99,,2013-05-15 07:52:00,